This is the latest recevied weather packets stored in our database for station/object HB4LO-13. If no packets are shown the sender has not sent any weather packets the latest 1 day(s).
| Time | Temp. | Humidity | Pressure | Rain* | Wind** | Luminosity | Snow |
|---|---|---|---|---|---|---|---|
| 1777990326 | 15.56° C | 62% | - | 0 mm | 1.79 m/s, 184° | - | - |
| 1777990266 | 15.56° C | 62% | - | 0 mm | 2.68 m/s, 174° | - | - |
| 1777990206 | 15.56° C | 62% | - | 0 mm | 2.68 m/s, 206° | - | - |
| 1777990146 | 15.56° C | 62% | - | 0 mm | 2.68 m/s, 169° | - | - |
| 1777990086 | 15.56° C | 62% | - | 0 mm | 2.68 m/s, 199° | - | - |
| 1777990026 | 15.56° C | 62% | - | 0 mm | 3.13 m/s, 175° | - | - |
| 1777989966 | 16.11° C | 62% | - | 0 mm | 3.13 m/s, 186° | - | - |
| 1777989906 | 16.11° C | 62% | - | 0 mm | 2.24 m/s, 187° | - | - |
| 1777989846 | 15.56° C | 62% | - | 0 mm | 2.24 m/s, 174° | - | - |
| 1777989786 | 15.56° C | 62% | - | 0 mm | 2.24 m/s, 193° | - | - |
| 1777989726 | 15.56° C | 62% | - | 0 mm | 2.24 m/s, 189° | - | - |
| 1777989666 | 15.56° C | 62% | - | 0 mm | 1.79 m/s, 171° | - | - |
| 1777989606 | 15.56° C | 62% | - | 0 mm | 2.24 m/s, 187° | - | - |
| 1777989546 | 15.56° C | 62% | - | 0 mm | 2.68 m/s, 167° | - | - |
| 1777989486 | 15.56° C | 62% | - | 0 mm | 1.79 m/s, 181° | - | - |
| 1777989426 | 15.56° C | 62% | - | 0 mm | 1.79 m/s, 170° | - | - |
| 1777989366 | 15.56° C | 62% | - | 0 mm | 1.79 m/s, 186° | - | - |
| 1777989306 | 15.56° C | 62% | - | 0 mm | 0.45 m/s, 226° | - | - |
| 1777989246 | 15.56° C | 62% | - | 0 mm | 0.89 m/s, 344° | - | - |
| 1777989186 | 15.56° C | 62% | - | 0 mm | 1.34 m/s, 171° | - | - |
| 1777989126 | 15.56° C | 62% | - | 0 mm | 1.79 m/s, 174° | - | - |
| 1777989066 | 15.56° C | 62% | - | 0 mm | 1.34 m/s, 173° | - | - |
| 1777989006 | 15.56° C | 62% | - | 0 mm | 0.89 m/s, 156° | - | - |
| 1777988946 | 15.56° C | 62% | - | 0 mm | 0 m/s | - | - |
| 1777988886 | 15.56° C | 62% | - | 0 mm | 0.45 m/s, 244° | - | - |
* Rain latest hour (hover to see other rain measurements)
** Current wind speed in m/s (hover to see current wind gust speed)